Location: Leathercoat Point
(51.1667°N, 1.4000°E)
Time: 02:39:29
(UTC+00:00)

Daily predictions for brighter satellites

Satellite Brightness Start Highest point End
(mag) Time Altitude Azimuth Time Altitude Azimuth Time Altitude Azimuth
ATLAS 3B R/B 4.1 03:07:46 32° ENE 03:07:46 32° ENE 03:11:58 10° E
Cosmos 1980 Rocket 4.2 03:22:10 24° E 03:22:10 24° E 03:25:28 10° NE
CENTAUR R/B 3.5 03:25:43 60° ENE 03:25:43 60° ENE 03:33:32 10° ESE
USA 215 4.0 03:26:38 10° E 03:31:26 48° ENE 03:31:26 48° ENE
ATLAS 2AS CENTAUR R/B 4.1 03:55:42 25° SSE 03:59:40 40° ESE 04:06:57 10° NE
Cosmos 2263 Rocket 2.7 04:13:22 55° E 04:13:22 55° E 04:18:05 10° SE
CZ-2C R/B 3.6 04:18:08 10° NNE 04:21:06 36° NNE 04:21:06 36° NNE
Lacrosse 5 rocket 3.1 04:27:57 31° NE 04:27:57 31° NE 04:30:48 10° ENE
Cosmos 2360 4.2 04:36:58 71° N 04:36:58 71° N 04:42:07 10° NNE
CZ-4B R/B 4.4 04:33:59 10° NNE 04:36:39 34° NE 04:36:39 34° NE
ALOS 3.9 04:35:10 10° NNE 04:39:25 33° E 04:43:37 10° SSE
SL-8 Rocket 4.3 04:34:57 10° N 04:41:07 63° ENE 04:47:14 10° SSE
Cosmos 2344 3.5 04:40:58 56° WSW 04:42:51 82° NW 04:51:29 10° NE
SKYMED 2 4.3 04:38:47 10° SSE 04:42:08 49° ESE 04:42:08 49° ESE
Cosmos 2278 3.8 04:45:54 61° NNW 04:45:54 61° NNW 04:50:56 10° NNE
Nadezhda 1 Rocket 3.9 04:51:09 62° NW 04:51:09 62° NW 04:56:48 10° N
STARLINK-71 4.4 04:52:11 49° E 04:52:11 49° E 04:55:18 10° ENE
STARLINK-79 4.3 04:53:31 50° E 04:53:31 50° E 04:56:43 10° ENE
STARLINK-78 4.3 04:55:08 52° ESE 04:55:08 52° ESE 04:58:24 10° ENE
SL-16 R/B 3.3 04:49:41 10° S 04:54:59 42° ESE 05:00:19 10° NE
STARLINK-57 4.2 04:56:50 55° E 04:56:50 55° E 05:00:09 10° ENE
STARLINK-61 4.2 04:57:05 51° ENE 04:57:05 51° ENE 05:00:08 10° ENE
Cosmos 2369 4.3 04:57:14 42° NNW 04:57:14 42° NNW 05:01:52 10° NNE
ATLAS 3B R/B 2.5 04:55:02 51° NW 04:56:53 79° SW 05:03:47 10° SE
STARLINK-49 4.1 04:58:19 56° ESE 04:58:19 56° ESE 05:01:43 10° ENE
Cosmos 2056 Rocket 3.8 04:55:42 29° NNW 04:58:30 67° ENE 05:03:54 10° SE
NOSS 3-2 (C) 4.1 04:57:42 48° W 04:58:49 52° WSW 05:06:48 10° SSE
Cosmos 2341 Rocket 3.8 04:52:45 10° NNW 04:59:02 77° W 05:05:14 10° S
STARLINK-27 4.0 04:59:55 59° ESE 04:59:55 59° ESE 05:03:22 10° ENE
BREEZE-M DEB (TANK) 2.9 05:00:28 59° S 05:00:51 62° SSE 05:09:43 10° E
NOSS 2-2 (C) 4.4 05:02:02 38° NNE 05:02:02 38° NNE 05:05:11 10° NE
STARLINK-74 3.9 05:01:29 61° ESE 05:01:29 61° ESE 05:05:00 10° ENE
Cosmos 1900 4.5 05:01:30 51° N 05:02:34 68° NE 05:07:27 10° SE
STARLINK-39 3.9 05:03:06 64° ESE 05:03:06 64° ESE 05:06:41 10° ENE
STARLINK 3.8 05:04:41 66° ESE 05:04:41 66° ESE 05:08:20 10° ENE
Cosmos 1980 Rocket 2.1 05:03:58 62° W 05:04:26 64° NW 05:10:05 10° NNE
STARLINK-69 3.7 05:06:29 70° ESE 05:06:29 70° ESE 05:10:11 10° ENE
Orbus 7S? 4.3 05:07:24 38° S 05:07:24 38° S 05:11:35 10° SE
Cosmos 923 Rocket 4.0 05:03:54 30° SSW 05:06:36 83° ESE 05:11:58 10° NNE
COSMOS 2455 2.7 05:06:00 52° WSW 05:07:28 73° NW 05:13:32 10° NE
STARLINK-21 3.7 05:07:53 72° ESE 05:07:53 72° ESE 05:11:40 10° ENE
ADEOS Rocket 3.9 05:02:42 10° SE 05:07:54 43° ENE 05:13:27 10° N
CZ-3 R/B 4.5 05:00:54 20° WSW 05:08:52 25° SSW 05:16:35 10° SSE
STARLINK-45 3.6 05:09:43 76° ESE 05:09:43 76° ESE 05:13:32 10° ENE
STARLINK-80 3.8 05:10:18 57° NE 05:10:18 57° NE 05:13:36 10° E
Okean O Rocket 3.4 05:05:54 10° NNE 05:09:57 33° E 05:13:57 10° SSE
NOSS 2-2 (E) 4.4 05:11:00 36° N 05:11:00 36° N 05:14:33 10° NE
Cosmos 1697 Rocket 3.3 05:10:50 37° NNW 05:10:50 37° NNW 05:15:29 10° NNE
STARLINK-70 3.5 05:11:13 78° SE 05:11:13 78° SE 05:15:07 10° ENE
STARLINK-76 3.5 05:12:40 79° SE 05:12:40 79° SE 05:16:39 10° ENE
FALCON 9 DEB 4.3 05:13:41 38° SSE 05:13:41 38° SSE 05:16:08 10° SE
STARLINK 3.5 05:14:14 80° SSE 05:14:14 80° SSE 05:18:17 10° ENE
Meteor 1-16 Rocket 4.2 05:08:26 10° S 05:14:21 88° E 05:20:10 10° NNE
Cosmos 1328 4.2 05:15:31 51° S 05:15:31 51° S 05:18:32 10° S
NOSS 3-4 (A) 3.6 05:11:03 21° SSW 05:15:16 71° SE 05:21:41 10° NE
NOSS 3-4 (C) 3.6 05:11:06 20° SSW 05:15:22 70° SE 05:21:47 10° NE
Lacrosse 5 3.1 05:11:45 15° SSW 05:15:28 38° SE 05:20:10 10° ENE
CENTAUR R/B 3.3 05:12:55 37° WNW 05:15:54 53° WSW 05:24:15 10° SSE
STARLINK-32 3.4 05:15:51 81° S 05:15:55 81° SSE 05:19:58 10° ENE
USA 215 3.2 05:09:26 10° SE 05:15:59 77° SSW 05:18:47 37° WNW
STARLINK-40 3.4 05:17:25 81° SSW 05:17:33 83° SSE 05:21:36 10° ENE
STARLINK-26 3.6 05:18:20 56° NE 05:18:20 56° NE 05:21:17 10° ENE
Cosmos 864 Rocket 4.5 05:11:43 10° N 05:17:59 86° E 05:24:16 10° S
Cosmos 2058 Rocket 3.5 05:13:41 10° S 05:18:00 62° E 05:22:20 10° NNE
STARLINK-42 3.3 05:18:29 79° E 05:18:29 79° E 05:22:00 10° ENE
STARLINK 1029 4.3 05:18:34 33° SSE 05:18:34 33° SSE 05:21:26 10° E
STARLINK-44 3.4 05:19:00 79° SW 05:19:11 84° SSE 05:23:14 10° ENE
Cosmos 1908 3.5 05:16:36 10° S 05:20:29 70° E 05:24:23 10° NNE
BREEZE M DEB (TANK) 4.4 05:12:03 30° W 05:20:51 78° SSW 05:25:55 10° ESE
STARLINK-37 3.4 05:20:44 78° SW 05:20:59 87° SSE 05:25:02 10° ENE
STARLINK-36 3.4 05:22:12 75° SW 05:22:31 86° SSE 05:26:35 10° ENE
Cosmos 1538 Rocket 4.5 05:23:42 40° NW 05:23:42 40° NW 05:28:26 10° NNE
Cosmos 2218 Rocket 3.9 05:17:18 10° NNW 05:23:44 81° W 05:30:04 10° S
RESURS DK-1 4.1 05:20:23 10° S 05:24:06 33° ESE 05:27:50 10° NE
STARLINK-68 3.4 05:24:00 73° WSW 05:24:22 90° W 05:28:25 10° ENE
Cosmos 1606 Rocket 3.5 05:24:52 49° SW 05:25:45 62° WNW 05:30:08 10° N
Cosmos 1726 Rocket 3.4 05:21:23 10° SSW 05:25:48 75° WNW 05:30:14 10° N
STARLINK-63 3.4 05:25:29 70° WSW 05:25:55 90° S 05:29:58 10° ENE
STARLINK-35 3.4 05:26:58 67° WSW 05:27:29 89° SSE 05:31:33 10° ENE
H-2A R/B 4.4 05:24:23 10° N 05:25:22 16° N 05:25:22 16° N
STARLINK-51 3.4 05:28:33 64° WSW 05:29:08 90° NNW 05:33:11 10° ENE
Cosmos 158 Rocket 4.1 05:25:46 10° SSW 05:30:36 68° ESE 05:35:34 10° NNE
STARLINK-30 3.4 05:30:09 62° WSW 05:30:48 89° NNW 05:34:51 10° ENE
STARLINK 1020 4.4 05:29:32 28° SSW 05:30:56 41° SSE 05:34:31 10° ENE
COSMO-SKYMED 1 2.9 05:27:01 10° S 05:30:46 45° WSW 05:30:46 45° WSW
STARLINK-72 3.4 05:31:45 59° WSW 05:32:28 88° NNW 05:36:31 10° ENE
USA 32 4.1 05:27:28 10° NNW 05:32:35 54° W 05:37:41 10° SSW
STARLINK-64 3.2 05:32:27 68° W 05:32:54 85° NNW 05:36:41 10° ENE
Cosmos 2228 3.0 05:31:18 28° SW 05:33:25 57° WNW 05:37:46 10° N
STARLINK-50 3.4 05:33:21 57° WSW 05:34:07 87° NNW 05:38:10 10° ENE
STARLINK 1034 4.3 05:32:41 28° SSW 05:34:11 43° SSE 05:37:46 10° ENE
Cosmos 1484 Rocket 3.7 05:32:11 10° N 05:34:26 31° NNW 05:34:26 31° NNW
STARLINK-59 3.4 05:35:02 55° W 05:35:53 85° NNW 05:39:55 10° ENE
Cosmos 1959 Rocket 4.3 05:30:06 10° NNW 05:36:11 69° W 05:42:17 10° S
STARLINK-29 3.7 05:37:20 43° SSW 05:37:21 43° SSW 05:40:43 10° SE
STARLINK-56 3.4 05:36:29 53° W 05:37:24 85° NNW 05:41:27 10° ENE
Starlink (trailer) 3.4 05:38:06 50° W 05:39:05 84° NNW 05:43:08 10° ENE
STARLINK-52 3.6 05:39:19 45° SW 05:39:27 46° SSW 05:42:49 10° SE
METEOR-M 4.0 05:34:21 10° NNE 05:39:44 83° WNW 05:45:05 10° SSW
STARLINK-48 3.5 05:39:29 49° NW 05:40:18 65° N 05:44:11 10° E
Cosmos 1452 Rocket 4.0 05:35:30 10° NNW 05:40:43 59° ENE 05:45:54 10° SE
STARLINK-38 3.4 05:39:42 48° W 05:40:44 83° NNW 05:44:47 10° ENE
STARLINK 1033 4.2 05:39:26 26° SSW 05:41:11 47° SSE 05:44:49 10° ENE
STARLINK-65 3.4 05:41:17 47° W 05:42:23 82° NNW 05:46:26 10° ENE
Meteor 2-12 Rocket 4.5 05:36:26 10° N 05:42:34 84° E 05:48:42 10° S
Meteor 2-10 4.1 05:38:14 10° SSW 05:43:35 56° WNW 05:48:46 10° N
Cosmos 1703 3.9 05:44:42 35° WSW 05:44:42 35° WSW 05:47:37 10° SSW
STARLINK-53 3.4 05:42:58 45° W 05:44:08 80° NNW 05:48:11 10° ENE
Cosmos 2278 Rocket 3.9 05:40:49 10° NNW 05:45:36 27° NE 05:50:20 10° E
Meteor 1-11 4.2 05:42:03 10° NNW 05:47:34 60° W 05:53:06 10° S
ATLAS 2AS CENTAUR R/B 3.0 05:43:13 14° SW 05:50:23 72° NW 05:58:20 10° NE
MOS 1-B 4.3 05:45:16 10° NNE 05:51:04 75° WNW 05:56:51 10° SSW
Cosmos 2366 rocket 4.1 05:46:30 10° NNW 05:52:42 56° W 05:58:51 10° SSW
STARLINK-58 3.4 05:52:13 36° W 05:53:44 77° NNW 05:57:44 10° ENE
Cosmos 1680 Rocket 3.6 05:48:59 10° SW 05:54:13 57° WNW 05:59:29 10° NNE
STARLINK-33 3.2 05:53:13 42° W 05:54:16 71° N 05:57:50 10° ENE
STARLINK-62 3.5 05:53:53 35° W 05:55:29 75° N 05:59:28 10° ENE
STARLINK-66 3.2 05:54:47 40° W 05:55:54 70° N 05:59:27 10° ENE
STARLINK-43 3.2 05:54:39 37° WNW 05:56:00 86° N 05:59:44 10° ESE
Cosmos 2263 Rocket 3.1 05:55:07 26° W 05:56:01 27° WSW 06:00:40 10° SSW
Cosmos 2322 Rocket 2.1 05:50:49 10° SSW 05:56:31 86° WNW 06:02:16 10° NNE
Cosmos 1371 Rocket 4.5 05:54:14 22° NW 05:57:03 40° WSW 06:01:59 10° S
CZ-4B DEB 4.1 05:51:50 10° NNE 05:57:23 71° WNW 06:02:52 10° SSW
STARLINK-55 3.2 05:56:25 38° W 05:57:36 69° N 06:01:09 10° ENE
NOSS 5 (C) 4.4 05:56:42 31° NW 05:58:07 79° NE 06:02:00 10° SE
Cosmos 1726 3.9 06:01:10 17° NNW 06:01:10 17° NNW 06:02:24 10° NNW
STARLINK-28 3.2 05:58:07 37° W 05:59:22 67° N 06:02:55 10° ENE
STARLINK 1035 3.6 05:57:35 23° SW 05:59:36 61° SSE 06:03:05 10° ENE
CZ-2C R/B 3.8 05:57:16 10° N 06:00:30 21° NW 06:00:30 21° NW
NOAA 6 4.0 05:56:30 10° NNE 06:01:44 85° WNW 06:06:56 10° SSW
Elektron 3 4.2 05:59:09 18° WSW 06:02:26 64° NW 06:05:27 10° NE
USA 116 4.4 05:58:34 10° SSW 06:02:40 37° W 06:04:52 21° NW
SJ-12 4.3 05:59:44 10° N 06:03:32 39° WNW 06:07:20 10° SW
STARLINK 1027 3.4 06:01:40 22° SW 06:03:47 66° SSE 06:07:19 10° ENE
NOSS 7 (A) 4.4 06:03:13 25° SW 06:04:48 73° NW 06:07:45 10° NE
Lacrosse 4 Rocket 4.0 06:04:10 10° N 06:05:26 11° NNE 06:06:42 10° NE
STARLINK 1044 3.7 06:03:33 18° SW 06:06:13 65° SSE 06:09:59 10° ENE
Lacrosse 5 rocket 1.9 06:03:36 22° NW 06:06:22 58° NNE 06:10:44 10° ESE
Cosmos 1420 Rocket 4.0 06:02:00 10° NNW 06:07:18 72° WSW 06:12:35 10° SSE
Cosmos 1340 Rocket 3.9 06:03:52 10° S 06:07:37 46° E 06:11:23 10° NNE
Cosmos 1844 Rocket 2.6 06:02:24 10° NNW 06:08:00 82° WSW 06:13:39 10° SSE
Cosmos 2058 3.2 06:06:53 10° N 06:11:07 72° ENE 06:15:19 10° SSE
Cosmos 2112 Rocket 4.3 06:07:32 10° SW 06:12:43 48° WNW 06:17:55 10° NNE
CZ-4B R/B 4.3 06:09:47 10° NNW 06:12:46 20° NW 06:12:46 20° NW
STARLINK-34 3.5 06:12:17 23° W 06:14:39 70° N 06:18:38 10° ENE
STARLINK-75 3.4 06:12:45 24° W 06:14:52 66° N 06:18:39 10° ENE
STARLINK 1031 3.5 06:12:51 15° WSW 06:15:47 72° SSE 06:19:30 10° ENE
STARLINK 1028 2.7 06:14:07 23° WSW 06:15:47 81° SSE 06:18:44 10° ENE
STARLINK 1021 2.7 06:14:21 23° WSW 06:16:01 81° SSE 06:18:58 10° ENE
Cosmos 2333 Rocket 4.3 06:11:05 10° SSE 06:16:05 31° ESE 06:21:06 10° NE
STARLINK 1019 2.7 06:14:36 23° WSW 06:16:15 81° SSE 06:19:10 10° ENE
STARLINK 1012 2.7 06:14:46 23° WSW 06:16:27 81° SSE 06:19:23 10° ENE
STARLINK 1010 2.7 06:15:01 22° WSW 06:16:42 82° SSE 06:19:38 10° ENE
ALOS 2.8 06:12:35 10° N 06:16:52 36° WNW 06:21:08 10° SW
STARLINK 1026 2.7 06:15:13 22° WSW 06:16:56 82° SSE 06:19:52 10° ENE
STARLINK 1013 2.7 06:15:26 22° WSW 06:17:09 82° SSE 06:20:05 10° ENE
STARLINK 1009 2.7 06:15:39 22° WSW 06:17:23 82° SSE 06:20:19 10° ENE
STARLINK 1015 2.7 06:15:52 22° WSW 06:17:36 82° SSE 06:20:32 10° ENE
STARLINK 1016 2.7 06:16:06 22° WSW 06:17:49 83° SSE 06:20:45 10° ENE
STARLINK 1008 2.7 06:16:17 22° WSW 06:18:02 83° SSE 06:20:58 10° ENE
CZ-2C R/B 4.2 06:13:34 10° SSE 06:18:03 61° ENE 06:22:29 10° N
STARLINK 1025 2.7 06:16:43 21° WSW 06:18:29 83° SSE 06:21:25 10° ENE
STARLINK 1017 2.7 06:16:56 21° WSW 06:18:43 83° SSE 06:21:40 10° ENE
STARLINK 1023 2.7 06:17:09 21° WSW 06:18:56 84° SSE 06:21:53 10° ENE
STARLINK 1007 2.7 06:17:22 21° WSW 06:19:10 84° SSE 06:22:06 10° ENE
STARLINK 1024 3.5 06:16:14 14° WSW 06:19:20 74° SSE 06:23:04 10° ENE
STARLINK 1048 2.7 06:17:35 21° WSW 06:19:23 84° SSE 06:22:19 10° ENE
STARLINK 1049 2.6 06:17:49 21° WSW 06:19:37 84° SSE 06:22:34 10° ENE
STARLINK 1051 2.6 06:18:01 21° WSW 06:19:49 84° SSE 06:22:46 10° ENE
STARLINK-41 3.4 06:18:02 21° W 06:20:24 67° N 06:24:09 10° ENE
Cosmos 371 Rocket 3.8 06:16:26 10° NNW 06:21:16 60° ENE 06:26:02 10° SE
STARLINK-24 3.6 06:18:55 20° W 06:21:37 68° N 06:25:38 10° ENE
STARLINK-81 3.6 06:20:50 19° W 06:23:39 69° N 06:27:40 10° ENE
Cosmos 1943 Rocket 4.4 06:22:08 10° N 06:24:41 13° NNE 06:27:13 10° NE
STARLINK 3.4 06:22:22 19° W 06:24:55 67° N 06:28:40 10° ENE
STARLINK-54 3.6 06:22:38 18° W 06:25:30 68° N 06:29:31 10° ENE
STARLINK 1032 3.4 06:22:26 13° WSW 06:25:45 79° SSE 06:29:29 10° ENE
Helios 1A Rocket 2.9 06:21:54 10° N 06:26:01 62° WNW 06:30:06 10° SSW
Cosmos 1812 Rocket 3.5 06:22:01 10° S 06:26:24 88° W 06:30:52 10° N
STARLINK-77 3.6 06:24:01 18° W 06:26:58 68° N 06:31:00 10° ENE
BREEZE M DEB (TANK) 3.5 06:24:47 12° WSW 06:27:26 65° SSE 06:35:01 10° E
FENGYUN 3A 4.1 06:23:17 10° N 06:28:14 37° WNW 06:33:10 10° SW
STARLINK-25 3.6 06:25:36 17° W 06:28:36 68° N 06:32:38 10° ENE
STARLINK 1011 3.4 06:25:51 12° WSW 06:29:21 82° SSE 06:33:06 10° ENE
STARLINK-71 3.6 06:27:26 17° W 06:30:30 67° N 06:34:31 10° E
STARLINK-79 3.6 06:28:45 16° W 06:31:54 67° N 06:35:56 10° E
STARLINK 1036 3.4 06:29:06 11° WSW 06:32:42 84° SSE 06:36:28 10° ENE
EXPRESS MD2 2.5 06:31:10 17° W 06:33:05 53° SSW 06:35:13 10° ESE
STARLINK-78 3.6 06:30:23 15° W 06:33:36 67° N 06:37:37 10° E
Alouette 2 Rocket 3.1 06:29:54 10° SSW 06:33:59 77° WNW 06:37:33 10° NNE
STARLINK-61 3.6 06:31:57 16° W 06:35:04 66° N 06:39:01 10° E
STARLINK-57 3.6 06:32:04 15° W 06:35:21 67° N 06:39:23 10° E
STARLINK 1014 2.7 06:33:40 13° WSW 06:36:17 82° NNW 06:39:22 10° ENE
STARLINK-49 3.6 06:33:34 14° W 06:36:55 67° N 06:40:57 10° E
STARLINK-27 3.6 06:35:09 14° W 06:38:34 67° N 06:42:36 10° E
SL-16 R/B 2.6 06:33:45 10° WSW 06:39:07 42° NW 06:44:33 10° NNE
H-2A R/B 2.7 06:35:17 10° N 06:39:10 63° WNW 06:43:00 10° SSW
STARLINK 1047 3.3 06:35:43 10° WSW 06:39:28 89° SSE 06:43:14 10° ENE
CZ-2C R/B 3.9 06:34:42 10° SE 06:39:40 41° ENE 06:44:46 10° N
Cosmos 1300 2.9 06:36:31 10° SSW 06:40:12 45° WNW 06:43:54 10° N
STARLINK-74 3.6 06:36:44 13° W 06:40:13 66° N 06:44:14 10° E
STARLINK 1037 3.3 06:37:37 10° WSW 06:41:22 90° WNW 06:45:09 10° ENE
STARLINK-39 3.6 06:38:20 13° W 06:41:54 66° N 06:45:55 10° E
CZ-4 R/B 3.5 06:38:06 10° NNE 06:41:57 33° E 06:45:45 10° SSE
Cosmos 2360 Rocket 2.2 06:36:18 10° SW 06:41:58 76° WNW 06:47:41 10° NNE
STARLINK 3.6 06:39:56 12° W 06:43:33 66° N 06:47:34 10° E
Cosmos 2322 4.0 06:38:31 10° SSW 06:44:09 73° ESE 06:49:49 10° NNE
STARLINK 1059 3.3 06:41:02 10° WSW 06:44:47 88° NNW 06:48:34 10° ENE
Cosmos 1437 3.8 06:42:41 10° NW 06:45:12 24° W 06:47:43 10° SSW
STARLINK-69 3.6 06:41:43 12° W 06:45:25 66° N 06:49:26 10° E
Cosmos 2219 Rocket 3.4 06:40:31 10° S 06:45:56 49° ESE 06:51:24 10° NE
AQUARIUS 4.1 06:41:47 10° NNE 06:46:18 76° WNW 06:50:47 10° SSW
Okean O Rocket 2.3 06:42:17 10° N 06:46:18 34° WNW 06:50:18 10° SW
ATLAS 3B R/B 4.0 06:42:19 11° WNW 06:46:39 20° WSW 06:51:24 10° SSW
CZ-4B R/B 3.5 06:41:26 10° N 06:46:43 45° WNW 06:51:51 10° SW
STARLINK-21 3.6 06:43:07 12° W 06:46:53 66° N 06:50:54 10° E
STARLINK 1057 3.3 06:44:27 10° WSW 06:48:12 85° NNW 06:52:00 10° ENE
STARLINK-80 3.4 06:44:47 12° WNW 06:48:17 84° SSW 06:52:06 10° ESE
STARLINK-45 3.7 06:44:57 11° W 06:48:46 66° N 06:52:48 10° E
STARLINK 1040 2.6 06:46:07 11° W 06:48:53 69° NNW 06:51:44 10° ENE
Cosmos 1980 Rocket 3.6 06:45:46 11° WNW 06:49:35 19° NNW 06:53:34 10° NNE
STARLINK-70 3.7 06:46:28 11° W 06:50:21 66° N 06:54:23 10° E
Okean 3 Rocket 3.7 06:46:42 10° N 06:51:17 88° E 06:55:50 10° S
STARLINK 1052 3.3 06:47:54 10° WSW 06:51:40 83° NNW 06:55:27 10° ENE
STARLINK-76 3.7 06:47:55 10° W 06:51:53 66° N 06:55:54 10° E
Cosmos 1844 4.0 06:46:40 10° NW 06:52:02 49° WSW 06:57:20 10° S
Cosmos 1455 3.1 06:49:33 10° S 06:53:21 55° E 06:57:09 10° NNE
STARLINK 3.7 06:49:30 10° W 06:53:31 66° N 06:57:32 10° E
ADEOS Rocket 3.4 06:48:33 10° SSW 06:53:36 36° W 06:58:58 10° NNW
Okean-O 3.0 06:49:39 10° NNE 06:54:06 70° ESE 06:58:31 10° S
YAOGAN 6 2.7 06:50:44 10° NNE 06:54:18 77° ESE 06:57:48 10° S
STARLINK 1029 2.8 06:51:10 10° W 06:54:19 75° NNW 06:57:27 10° ENE
COSMOS 2455 3.9 06:49:29 10° W 06:54:26 26° NNW 06:59:24 10° NNE
STARLINK-26 3.2 06:51:39 10° WNW 06:55:04 73° N 06:58:34 10° E
STARLINK 1068 3.3 06:51:20 10° WSW 06:55:06 81° NNW 06:58:53 10° ENE
STARLINK-32 3.7 06:51:11 10° W 06:55:13 66° N 06:59:14 10° E
Cosmos 1697 Rocket 4.5 06:53:09 10° NW 06:55:55 14° NNW 06:58:42 10° N
STARLINK-42 3.5 06:52:37 10° W 06:56:19 64° N 07:00:01 10° E
Cosmos 2058 Rocket 4.4 06:53:27 10° WSW 06:56:27 18° WNW 06:59:27 10° NNW
SAR-Lupe-2 3.7 06:52:52 10° SSE 06:56:27 80° ENE 07:00:04 10° NNW
STARLINK-40 3.7 06:52:49 10° W 06:56:50 66° N 07:00:51 10° E
Lacrosse 5 1.9 06:53:11 10° WSW 06:58:16 70° NNW 07:03:22 10° ENE
STARLINK-44 3.7 06:54:28 10° W 06:58:29 66° N 07:02:30 10° E
Cosmos 2344 4.4 06:51:25 10° W 06:58:42 40° N 07:07:38 10° ENE
STARLINK 1043 4.5 06:55:26 10° SW 06:59:28 53° SSE 07:03:30 10° ENE
USA 215 4.3 06:54:12 10° S 06:59:41 28° SW 07:05:12 10° WNW
Cosmos 1821 Rocket 4.3 06:54:16 10° NNW 07:00:01 42° W 07:05:42 10° SSW
STARLINK-37 3.7 06:56:16 10° W 07:00:17 66° N 07:04:19 10° E
CORIOLIS 4.1 06:55:39 10° NNE 07:01:01 75° WNW 07:06:22 10° SSW
STARLINK-36 3.7 06:57:48 10° W 07:01:50 66° N 07:05:51 10° E
Cosmos 2237 4.3 06:56:16 10° SW 07:01:54 59° NW 07:07:34 10° NNE
STARLINK 1060 3.3 06:58:14 10° W 07:02:01 78° NNW 07:05:48 10° ENE
RESURS DK-1 3.0 06:58:17 10° WSW 07:02:07 35° NW 07:05:58 10° NNE
STARLINK-68 3.7 06:59:40 10° W 07:03:41 66° N 07:07:42 10° E
STARLINK 1065 4.4 07:00:21 10° SW 07:04:24 56° SSE 07:08:28 10° ENE
Cosmos 1076 Rocket 4.4 07:00:33 10° NNW 07:04:25 31° W 07:08:15 10° SSW
Cosmos 2369 Rocket 4.3 07:00:49 10° N 07:04:27 17° NNE 07:08:05 10° ENE
STARLINK 1030 3.3 07:01:28 10° W 07:05:14 77° NNW 07:09:01 10° ENE
STARLINK-63 3.7 07:01:13 10° W 07:05:14 66° N 07:09:16 10° E
NOSS 3-4 (A) 4.0 07:00:49 10° W 07:06:37 41° NNW 07:12:54 10° NE
NOSS 3-4 (C) 4.0 07:00:55 10° W 07:06:43 41° NNW 07:13:00 10° NE
Nadezhda 3 Rocket 4.2 07:01:00 10° SW 07:06:54 47° WNW 07:12:55 10° N
